Погода в Александровке

Украина / Кировоградская область     48°33′26″N   31°12′10″E
темп.,
°C
ветер,
м/с
пор.,
м/с
влажн.,
%
обл.,
%
осадки,
мм/ч
давл.,
гПа
погр.,
м
14 апреля, ср
ср1400:00+8ю498492 0.0 1018294
03:00+6ююв498819 0.0 1018280
06:00+4ююв369425 0.0 1018131
09:00+8ююв467573 0.0 1017444
12:00+13ю5759100 0.0 10161398
15:00+12ююв4662100 0.0 10151104
18:00+11ююз237296 0.0 1014112
21:00+10св2375100 0.0 101448
15 апреля, чт
чт1500:00+9ююв2480100 0.1 1013130
03:00+8ююв2387100 0.1 101298
06:00+8в2689100 0.3 1011272
09:00+8в3688100 0.4 1011438
12:00+9вюв3582100 0.6 1011621
15:00+9ююз0190100 1.8 1011189
18:00+9зсз3388100 0.1 1011307
21:00+8юз229382 0.1 101176
16 апреля, пт
пт1600:00+7ююз249598 0.0 1011172
03:00+7ююз3597100 0.1 1010237
06:00+6ю4697100 0.7 1010297
09:00+6ююз5693100 1.0 1011462
12:00+5юз5691100 0.8 1012550
15:00+4ююз5594100 1.0 1014567
18:00+3ююз4697100 0.4 1015579
21:00+4юз4593100 0.6 1016546
17 апреля, сб
сб1700:00+3юз3497100 0.0 1017425
03:00+3ююз3497100 0.1 1018302
06:00+3юз3497100 0.3 1019262
09:00+4юз129297 0.4 1020298
12:00+7ююз3382100 0.0 1021739
15:00+7зюз238075 0.1 1021589
18:00+8зюз2271100 0.0 1021670
21:00+7зюз2384100 0.1 1022131
18 апреля, вс
вс1800:00+7з1180100 0.0 102212
03:00+7св007699 0.0 102110
06:00+7в2273100 0.0 102122
09:00+9вюв3366100 0.0 1021458
12:00+12вюв225779 0.0 10201268
15:00+14вюв3350100 0.1 10201600
18:00+12всв4663100 0.1 1020541
21:00+10всв51076100 0.1 1020308